Regional Weather Roundup
Issued by NWS

Home | Current Version | Previous Version | Graphics & Text | Print | Product List | Glossary On
Versions: 1 2 3 4 5 6 7 8 9 10 11 12 13 14 15 16 17 18 19 20 21 22 23 24 25 26 27 28 29 30 31 32 33 34 35 36 37 38 39 40 41 42 43 44 45 46 47 48 49 50
000
ASUS43 KOAX 260710
RWRNE

WEATHER ROUNDUP FOR NEBRASKA
NATIONAL WEATHER SERVICE OMAHA NE
200 AM CDT MON JUN 26 2017

NOTES: SATELLITE DATA IS BEING USED TO AUGMENT CLOUD COVER ABOVE
       12000 FEET.
       "FAIR" INDICATES FEW OR NO CLOUDS BELOW 12,000 FEET WITH NO
       SIGNIFICANT WEATHER AND/OR OBSTRUCTIONS TO VISIBILITY.

  * THESE STATIONS DO NOT REPORT WEATHER SUCH AS RAIN...SNOW OR FOG.

NEZ001>004-019>022-054>056-260800-
NEBRASKA PANHANDLE

CITY           SKY/WX    TMP DP  RH WIND       PRES   REMARKS
SCOTTSBLUFF    CLEAR     64  53  67 SW6       30.23F
ALLIANCE       CLEAR     56  51  84 N9        30.23R
CHADRON        CLEAR     49  42  77 SE5       30.22R
GORDON         CLOUDY    55  44  66 NE9       30.23S
KIMBALL        CLEAR     56  55  97 SW8       30.30S
SIDNEY         CLEAR     55  53  93 SW10      30.27F
$$

NEZ057>060-069>072-079>082-260800-
SOUTHWEST NEBRASKA

CITY           SKY/WX    TMP DP  RH WIND       PRES   REMARKS
NORTH PLATTE   PTCLDY    57  54  89 SW6       30.24S
IMPERIAL       PTCLDY    57  55  93 SW9       30.25F
LEXINGTON      CLOUDY    59  54  84 SW5       30.25S
MCCOOK         CLOUDY    60  59  96 SW7       30.25F
OGALLALA       CLEAR     58  55  89 SW6       30.24S
$$

NEZ005>010-023>029-035>040-094-260800-
NORTH CENTRAL NEBRASKA

CITY           SKY/WX    TMP DP  RH WIND       PRES   REMARKS
VALENTINE      PTCLDY    60  43  53 N6        30.19R
AINSWORTH      CLEAR     60  54  78 SW9       30.18S
BROKEN BOW     CLOUDY    59  51  75 CALM      30.22F
O`NEILL        CLEAR     60  50  71 SW8       30.17F
ORD            CLOUDY    60  47  61 S6        30.20S
THEDFORD       PTCLDY    57  53  86 CALM      30.23S
$$

NEZ041-046>049-061>064-073>077-083>087-260800-
SOUTH CENTRAL NEBRASKA

CITY           SKY/WX    TMP DP  RH WIND       PRES   REMARKS
GRAND ISLAND   CLOUDY    62  50  64 SW10      30.22F
AURORA         CLOUDY    61  49  64 SW7       30.21F
HASTINGS       MOCLDY    60  49  66 SW5       30.25R
HEBRON         CLEAR     58  52  83 CALM      30.24R
HOLDREGE       PTCLDY    57  54  88 SW6       30.25S
KEARNEY *      CLOUDY    61  52  72 SW12      30.25S
YORK           CLOUDY    59  48  67 SW9       30.22S
$$

NEZ011>018-030>034-042>045-260800-
NORTHEAST NEBRASKA

CITY           SKY/WX    TMP DP  RH WIND       PRES   REMARKS
NORFOLK        CLEAR     60  46  59 SW10      30.16F
ALBION         CLOUDY    60  48  63 SW3       30.19F
BLAIR          CLEAR     59  46  63 SE6       30.16F
FREMONT        PTCLDY    61  45  57 SW6       30.18R
TEKAMAH        PTCLDY    53  41  63 NE3       30.17S
WAYNE          LGT RAIN  58  46  62 CALM      30.19R
$$

NEZ050>053-065>068-078-088>093-260800-
SOUTHEAST NEBRASKA

CITY           SKY/WX    TMP DP  RH WIND       PRES   REMARKS
LINCOLN        CLOUDY    61  49  64 SW6       30.20F
OMAHA EPPLEY   CLEAR     60  48  64 SE9       30.17F
BEATRICE       CLEAR     55  51  88 SW5       30.22S
FALLS CITY     CLEAR     54  50  86 S5        30.19F
NEBRASKA CITY  CLEAR     58  53  83 SW9       30.19F
PLATTSMOUTH    CLEAR     59  49  68 S5        30.18F
$$

NEZ044-045-051>053-067-260800-
OMAHA AREA

CITY           SKY/WX    TMP DP  RH WIND       PRES   REMARKS
OMAHA EPPLEY   CLEAR     60  48  64 SE9       30.17F
BLAIR          CLEAR     59  46  63 SE6       30.16F
FREMONT        PTCLDY    61  45  57 SW6       30.18R
MILLARD        CLEAR     61  51  70 CALM      30.17F
OFFUTT AFB     CLEAR     55  50  82 SE7       30.17F
PLATTSMOUTH    CLEAR     59  49  68 S5        30.18F
WAHOO          FAIR      61  46  58 SW10      30.17F
$$




USA.gov is the U.S. government's official web portal to all federal, state and local government web resources and services.